map of PVG home
Great Circle Mapper logo
PVG - Airport
Location
City:  Shanghai, Shanghai, China
Name:Pudong International Airport
ICAO / IATA:ZSPD / PVG

Details
Type:Airport (Aerodrome, Airfield)
Use:Public/Civil, International (customs port of entry)
Latitude:3108'36"N (31.143378)
Longitude:12148'19"E (121.805214)
Datum:WGS 1984
Elevation:13 ft (4 m)
Variation:5.76W (WMM2015 magnetic declination)
-0.08 annual change
Runways:2
Longest:13123 × 197 ft (4000 × 60 m), paved

Time
Time Zone:UTC+8
Local Time:

Weather
METAR:ZSPD 011030Z 34003MPS 6000 NSC 08/01 Q1025 NOSIG
TAF:ZSPD 010926Z 0112/0212 33003MPS 5000 BR SCT020 TX12/0206Z TN03/0122Z
BECMG 0116/0118 15004MPS

Related Locations
Nearby:
Farthest:COC: 12433 mi / 20010 km
Concordia [Comodoro Pierrestegui], ER, AR

Find:

   beyond  
but within

Other Information
Maps:
NOTAMs:
Links:
Sources:

  
flag of China   

Sectional Chart

Flight Planning
at skyvector.com

Satellite Image

Google Maps Satellite View

 

Copyright © 2004-2015 Karl L. Swartz. All rights reserved.
The Great Circle Mapper name and logo are trademarks of the Great Circle Mapper.
All other trademarks mentioned herein belong to their respective owners.
Please see credits for attibutions and further copyright information.

  Follow gcmap on Facebook Follow gcmap on Twitter Follow gcmap on Google+

hCard Microformat

Geo Microformat